OBJECT U, 62395

Orbit data source: Space-Track

You're viewing an Uncataloged Satellite

Recently launched and/or uncataloged satellites may have evolving metadata. Metadata may include but not limited to: Owner, Maufacturer, Bus, Motor, and Mission.

OBJECT U, 62395 is a satellite in LEO that was launched on Sat, 21 Dec 2024 UTC via an FALCON 9 launch vehicle from the Air Force Western Test Range (AFWTR). Unknown objects in Earth's orbit typically refer to objects detected orbiting the Earth but have not yet been identified or cataloged. These objects could be anything from previously untracked satellites, spent rocket stages, debris from satellite collisions, or even natural meteoroids temporarily captured by Earth's gravity.

Loading next visibility...
Identifier
62395, 2024-247U
Orbit
LEO
Country
Flag of TBDTBD
Related business
Flag of USONDO Space LLC (US)
Manufacturer
ONDO Space
Mission
Operational Commercial Communications
Bus & Motor
CUBESAT 0.5U, Unknown motor
Mass
0.25 kg wet, 0.25 kg dry
Launch date (UTC)
2024-12-21 (1 year ago)
Launch vehicle
FALCON 9
Launch site
Air Force Western Test Range (AFWTR)
Object type
Unknown
Shape & HBR
Box, 0.0 m
Radar Cross Section
0.004 m², Small (<0.1 m²)

Expand to show TLE details & history
Last TLE update: 1 day ago

TLE from 1 day ago
0 OBJECT U
1 62395U 24247U   26036.02783833  .00033818  00000-0  84878-3 0  9996
2 62395  44.9965 275.7789 0008674 173.5009 186.5992 15.39448650 62978
Epoch: 2026-02-05T00:40Z
TLE epoch observation values (Epoch: 2026-02-05T00:40:05.231Z)
Latitude
-0.00006°
Longitude
130.57109°
Altitude
453.618 km
Speed
7.639 km/s
True Right ascension
18h 23m 06s
True Declination
0° 00' 00"
Sunlit
Object was in daylight at epoch
Visualization orbit readout
Latitude
Unknown
Longitude
Unknown
Altitude
Unknown
Speed
Unknown
Apparent Right ascension
Unknown
Apparent Declination
Unknown
Sunlit
N/A
Visualization observer readout
Local Sidereal Time
06:37:16
Azimuth
Unknown
Elevation
Unknown
Doppler factor
Unknown
Orbital elements
Apogee altitude
455.279 km
Perigee altitude
443.435 km
Semi-major axis
6,827.494 km
Eccentricity
0.00087
Inclination
44.9965°
RAAN
275.7789°
Arg. of periapsis
173.5009°
True anomaly
186.58779°
Mean anomaly
186.5992°
Eccentric anomaly
186.59349°
Mean motion
3.84726 °/min
Orbital period
93.57 mins
BSTAR
0.00084878
Loading maneuver chart data...
Computing Atmospheric mass density...
Loading historical data...
Loading historical data...
Loading historical data...
Loading historical data...
Loading historical data...
Loading historical data...
Loading historical data...

Documentation

Showing up to 5 results
|